{"data":{"norad_id":52136,"epoch":"2026-05-25T02:31:22.538208Z","epoch_age_seconds":72695,"freshness":"FRESH","line1":"1 52136U 22029BA  26145.10512197  .00000505  00000+0  49825-4 0  9997","line2":"2 52136  53.2144  86.0746 0001429  92.2159 267.8997 15.08844759232470","mean_motion":15.08844759,"eccentricity":0.0001429,"inclination_deg":53.2144,"raan_deg":86.0746,"arg_perigee_deg":92.2159,"mean_anomaly_deg":267.8997,"bstar":4.9825e-5,"rev_number":23247,"period_min":95.437253661163,"perigee_km":538.74027961429,"apogee_km":540.71740567212,"semimajor_km":6917.8658426432,"source":"CELESTRAK","updated_at":"2026-05-25T13:38:17.078527Z"}}